When you browse on this site, cookies collect data to enhance your experience and personalize the content and advertising you see.
Visit our Privacy Policy to learn more. By continuing to use the site, you agree to this use of cookies and data.
  • en France
  • Liste des pays
  • À 7 jours
  • Température de l'eau
  • Carte satellitaire
  • Carte météo
  • Widgets météo
  • user-avatar
    Se connecter

    Météo par heure à Pernik

    Ce jour, 17 Juillet, Mercredi

    Heure Température Précipitation Vent Pression Humidité
    00:00 +13°C° 0 mm 1 m/s 688 mmHg 88%
    01:00 +13°C° 0 mm 1 m/s 688 mmHg 89%
    02:00 +13°C° 0 mm 1 m/s 688 mmHg 90%
    03:00 +12°C° 0 mm 1 m/s 688 mmHg 90%
    04:00 +12°C° 0 mm 1 m/s 688 mmHg 90%
    05:00 +12°C° 0 mm 1 m/s 688 mmHg 90%
    06:00 +13°C° 0 mm 1 m/s 688 mmHg 86%
    07:00 +15°C° 0 mm 1 m/s 689 mmHg 83%
    08:00 +17°C° 0 mm 2 m/s 689 mmHg 79%
    09:00 +18°C° 0 mm 2 m/s 689 mmHg 71%
    10:00 +20°C° 0 mm 2 m/s 690 mmHg 63%
    11:00 +21°C° 0 mm 2 m/s 690 mmHg 55%
    12:00 +22°C° 0.1 mm 3 m/s 690 mmHg 56%
    13:00 +22°C° 0.1 mm 3 m/s 689 mmHg 56%
    14:00 +22°C° 0.1 mm 4 m/s 689 mmHg 57%
    15:00 +22°C° 0.1 mm 4 m/s 689 mmHg 56%
    16:00 +22°C° 0.1 mm 4 m/s 689 mmHg 56%
    17:00 +22°C° 0.1 mm 3 m/s 689 mmHg 56%
    18:00 +20°C° 0 mm 3 m/s 689 mmHg 63%
    19:00 +18°C° 0 mm 2 m/s 688 mmHg 70%
    20:00 +17°C° 0 mm 2 m/s 688 mmHg 77%
    21:00 +16°C° 0 mm 2 m/s 688 mmHg 80%
    22:00 +15°C° 0 mm 1 m/s 688 mmHg 83%
    23:00 +14°C° 0 mm 1 m/s 689 mmHg 86%

    Demain, 18 Juillet, Jeudi

    Heure Température Précipitation Vent Pression Humidité
    00:00 +13°C° 0 mm 1 m/s 688 mmHg 86%
    01:00 +13°C° 0 mm 1 m/s 688 mmHg 87%
    02:00 +12°C° 0 mm 1 m/s 688 mmHg 87%
    03:00 +12°C° 0 mm 1 m/s 688 mmHg 88%
    04:00 +11°C° 0 mm 0 m/s 688 mmHg 88%
    05:00 +10°C° 0 mm 0 m/s 688 mmHg 89%
    06:00 +12°C° 0 mm 0 m/s 688 mmHg 85%
    07:00 +14°C° 0 mm 0 m/s 689 mmHg 80%
    08:00 +16°C° 0 mm 0 m/s 689 mmHg 76%
    09:00 +20°C° 0 mm 1 m/s 690 mmHg 68%
    10:00 +22°C° 0 mm 1 m/s 690 mmHg 60%
    11:00 +23°C° 0 mm 1 m/s 690 mmHg 53%
    12:00 +24°C° 0 mm 1 m/s 690 mmHg 50%
    13:00 +25°C° 0 mm 1 m/s 690 mmHg 47%
    14:00 +25°C° 0 mm 1 m/s 690 mmHg 44%
    15:00 +25°C° 0 mm 1 m/s 690 mmHg 44%
    16:00 +25°C° 0 mm 1 m/s 690 mmHg 45%
    17:00 +25°C° 0 mm 1 m/s 690 mmHg 45%
    18:00 +23°C° 0 mm 1 m/s 690 mmHg 53%
    19:00 +21°C° 0 mm 1 m/s 690 mmHg 62%
    20:00 +19°C° 0 mm 1 m/s 690 mmHg 70%
    21:00 +18°C° 0 mm 1 m/s 690 mmHg 73%
    22:00 +18°C° 0 mm 1 m/s 690 mmHg 76%
    23:00 +16°C° 0 mm 1 m/s 690 mmHg 79%

    Après-demain, 19 Juillet, Vendredi

    Heure Température Précipitation Vent Pression Humidité
    00:00 +14°C° 0 mm 0 m/s 690 mmHg 80%
    01:00 +14°C° 0 mm 0 m/s 690 mmHg 80%
    02:00 +14°C° 0 mm 0 m/s 690 mmHg 81%
    03:00 +13°C° 0 mm 0 m/s 690 mmHg 82%
    04:00 +13°C° 0 mm 0 m/s 690 mmHg 82%
    05:00 +13°C° 0 mm 0 m/s 690 mmHg 83%
    06:00 +14°C° 0 mm 0 m/s 691 mmHg 78%
    07:00 +16°C° 0 mm 0 m/s 692 mmHg 73%
    08:00 +18°C° 0 mm 0 m/s 692 mmHg 68%
    09:00 +20°C° 0 mm 0 m/s 692 mmHg 62%
    10:00 +24°C° 0 mm 1 m/s 693 mmHg 57%
    11:00 +26°C° 0 mm 1 m/s 693 mmHg 51%
    12:00 +26°C° 0.1 mm 1 m/s 693 mmHg 48%
    13:00 +27°C° 0.1 mm 1 m/s 693 mmHg 45%
    14:00 +28°C° 0.1 mm 1 m/s 693 mmHg 42%
    15:00 +27°C° 0.1 mm 1 m/s 693 mmHg 43%
    16:00 +27°C° 0.1 mm 1 m/s 692 mmHg 43%
    17:00 +27°C° 0.1 mm 1 m/s 692 mmHg 43%
    18:00 +25°C° 0.1 mm 1 m/s 692 mmHg 51%
    19:00 +23°C° 0.1 mm 1 m/s 692 mmHg 59%
    20:00 +21°C° 0.1 mm 1 m/s 692 mmHg 66%
    21:00 +20°C° 0 mm 1 m/s 692 mmHg 69%
    22:00 +19°C° 0 mm 1 m/s 692 mmHg 72%
    23:00 +18°C° 0 mm 1 m/s 692 mmHg 74%

    20 Juillet, Samedi

    Heure Température Précipitation Vent Pression Humidité
    00:00 +18°C° 0 mm 1 m/s 692 mmHg 76%
    01:00 +15°C° 0 mm 0 m/s 692 mmHg 77%
    02:00 +14°C° 0 mm 0 m/s 692 mmHg 79%
    03:00 +14°C° 0 mm 0 m/s 692 mmHg 80%
    04:00 +14°C° 0 mm 0 m/s 692 mmHg 81%
    05:00 +13°C° 0 mm 0 m/s 692 mmHg 82%
    06:00 +15°C° 0 mm 0 m/s 693 mmHg 76%
    07:00 +17°C° 0 mm 0 m/s 693 mmHg 71%
    08:00 +19°C° 0 mm 0 m/s 694 mmHg 66%
    09:00 +21°C° 0 mm 0 m/s 694 mmHg 60%
    10:00 +25°C° 0 mm 1 m/s 694 mmHg 54%
    11:00 +27°C° 0 mm 1 m/s 695 mmHg 48%
    12:00 +27°C° 0 mm 1 m/s 695 mmHg 44%
    13:00 +28°C° 0 mm 1 m/s 695 mmHg 41%
    14:00 +29°C° 0 mm 1 m/s 695 mmHg 37%
    15:00 +28°C° 0 mm 2 m/s 694 mmHg 39%
    16:00 +28°C° 0 mm 2 m/s 694 mmHg 41%
    17:00 +28°C° 0 mm 2 m/s 694 mmHg 43%
    18:00 +26°C° 0 mm 2 m/s 694 mmHg 52%
    19:00 +24°C° 0 mm 2 m/s 694 mmHg 60%
    20:00 +21°C° 0 mm 2 m/s 693 mmHg 68%
    21:00 +21°C° 0 mm 1 m/s 694 mmHg 69%
    22:00 +20°C° 0 mm 1 m/s 694 mmHg 71%
    23:00 +17°C° 0 mm 0 m/s 694 mmHg 72%

    21 Juillet, Dimanche

    Heure Température Précipitation Vent Pression Humidité
    00:00 +17°C° 0 mm 0 m/s 694 mmHg 73%
    01:00 +16°C° 0 mm 0 m/s 694 mmHg 73%
    02:00 +16°C° 0 mm 0 m/s 694 mmHg 74%
    03:00 +15°C° 0 mm 0 m/s 693 mmHg 75%
    04:00 +15°C° 0 mm 0 m/s 693 mmHg 76%
    05:00 +15°C° 0 mm 0 m/s 693 mmHg 77%
    06:00 +16°C° 0 mm 0 m/s 694 mmHg 72%
    07:00 +18°C° 0 mm 0 m/s 694 mmHg 67%
    08:00 +20°C° 0 mm 0 m/s 695 mmHg 62%
    09:00 +22°C° 0 mm 0 m/s 695 mmHg 57%
    10:00 +26°C° 0 mm 1 m/s 695 mmHg 51%
    11:00 +28°C° 0 mm 1 m/s 696 mmHg 45%
    12:00 +29°C° 0 mm 1 m/s 696 mmHg 43%
    13:00 +29°C° 0 mm 1 m/s 696 mmHg 40%
    14:00 +30°C° 0 mm 1 m/s 695 mmHg 38%
    15:00 +30°C° 0 mm 1 m/s 695 mmHg 39%
    16:00 +30°C° 0 mm 1 m/s 695 mmHg 39%
    17:00 +29°C° 0 mm 2 m/s 695 mmHg 40%
    18:00 +27°C° 0 mm 1 m/s 694 mmHg 49%
    19:00 +25°C° 0 mm 1 m/s 694 mmHg 57%
    20:00 +23°C° 0 mm 1 m/s 694 mmHg 66%
    21:00 +22°C° 0 mm 1 m/s 694 mmHg 67%
    22:00 +21°C° 0 mm 1 m/s 694 mmHg 69%
    23:00 +21°C° 0 mm 1 m/s 694 mmHg 70%

    22 Juillet, Lundi

    Heure Température Précipitation Vent Pression Humidité
    00:00 +18°C° 0 mm 0 m/s 694 mmHg 72%
    01:00 +18°C° 0 mm 0 m/s 694 mmHg 73%
    02:00 +17°C° 0 mm 0 m/s 694 mmHg 74%
    03:00 +17°C° 0 mm 0 m/s 694 mmHg 76%
    04:00 +17°C° 0 mm 0 m/s 693 mmHg 77%
    05:00 +16°C° 0 mm 0 m/s 693 mmHg 78%
    06:00 +18°C° 0 mm 0 m/s 694 mmHg 73%
    07:00 +20°C° 0 mm 0 m/s 694 mmHg 68%
    08:00 +22°C° 0 mm 0 m/s 694 mmHg 63%
    09:00 +24°C° 0 mm 0 m/s 695 mmHg 58%
    10:00 +27°C° 0 mm 1 m/s 695 mmHg 53%
    11:00 +29°C° 0 mm 1 m/s 695 mmHg 48%
    12:00 +29°C° 0.1 mm 2 m/s 695 mmHg 46%
    13:00 +30°C° 0.1 mm 2 m/s 694 mmHg 45%
    14:00 +30°C° 0.1 mm 2 m/s 694 mmHg 43%
    15:00 +29°C° 0.1 mm 2 m/s 694 mmHg 47%
    16:00 +29°C° 0.1 mm 3 m/s 693 mmHg 51%
    17:00 +28°C° 0.1 mm 3 m/s 693 mmHg 55%
    18:00 +27°C° 0.1 mm 2 m/s 693 mmHg 60%
    19:00 +25°C° 0.1 mm 2 m/s 693 mmHg 66%
    20:00 +23°C° 0.1 mm 1 m/s 692 mmHg 71%
    21:00 +22°C° 0.3 mm 1 m/s 692 mmHg 75%
    22:00 +21°C° 0.3 mm 1 m/s 692 mmHg 79%
    23:00 +20°C° 0.3 mm 1 m/s 692 mmHg 82%
    Voir plus